Content
SEND FEEDBACK

Daily
Averages
Monthly
Summary
United States of America

ALPINE MEADOWS, CALIFORNIA


Home > North America > United States > California
Elevation: 6230 feet     Latitude: 39 12N     Longitude: 120 14W

WEATHER
 
SELECT A DAY
Number of Records: 286,503;   Date Range: 1/1/95 - 9/30/14
 
SHARE

PRINT THIS DATA

[ ← Previous Day ]
WEATHER ALMANAC - FEBRUARY 8, 2014
[ Next Day → ]
[ °C ]   °F
Weather ElementAverageHighLow
Temperature36.5 °F39.2 °F (10:55 am)33.8 °F (5:35 am)
Dewpoint33.1 °F35.6 °F (11:55 am)30.2 °F (2:55 am)
Humidity87.8 %93 % (5:35 am)75 % (2:55 am)
Barometer30.08 in30.16 in (9:55 pm)29.98 in (12:35 am)
Wind Speed8.6 mph19.6 mph (10:55 am)
Wind Gust34.5 mph (1:15 am)
Weather ElementAverage
Visibility7.8 mi
Wind DirectionSSE (174 °)

Weather ElementTotal
Precipitation2.08 in
Heating Degree Days28.5 (Base 65)
Averaged from 48 records on February 8, 2014
WEATHER CONDITIONS BREAKOUT
WIND DIRECTION BREAKOUT
WEATHER BY HOUR - FEBRUARY 8, 2014
[ °C ]   °F
Local TimeTemperatureDewpointHumidityBarometerVisibilityWind DirectionWind SpeedGust SpeedPrecipitationEventsConditions
12:35 AM37.4 °F32.0 °F81 %29.98 in10.0 miWSW (240°)9.2 mph31.1 mphOvercast
12:55 AM35.6 °F32.0 °F87 %30.00 in10.0 miSW (220°)9.2 mph23.0 mphLight Drizzle
1:15 AM37.4 °F32.0 °F81 %29.99 in10.0 miSW (230°)10.4 mph34.5 mphOvercast
1:35 AM37.4 °F32.0 °F81 %29.99 in10.0 miSSW (210°)16.1 mph26.5 mphMostly Cloudy
1:55 AM37.4 °F32.0 °F81 %30.00 in10.0 miWSW (240°)13.8 mph17.3 mphScattered Clouds
2:15 AM37.4 °F32.0 °F81 %30.01 in10.0 miWSW (240°)11.5 mph33.4 mphScattered Clouds
2:35 AM37.4 °F32.0 °F81 %30.02 in10.0 miSW (230°)6.9 mph23.0 mphScattered Clouds
2:55 AM37.4 °F30.2 °F75 %30.03 in10.0 miSW (230°)6.9 mph17.3 mphScattered Clouds
3:15 AM37.4 °F30.2 °F75 %30.03 in10.0 miSouth (170°)3.5 mphMostly Cloudy
3:35 AM37.4 °F32.0 °F81 %30.03 in10.0 miCalmRainLight Rain
3:55 AM37.4 °F32.0 °F81 %30.04 in10.0 miCalmLight Drizzle
4:15 AM35.6 °F32.0 °F87 %30.04 in10.0 miCalmOvercast
4:35 AM35.6 °F32.0 °F87 %30.04 in10.0 miNNE (20°)6.9 mphDrizzle
4:55 AM35.6 °F32.0 °F87 %30.04 in10.0 miNNE (30°)4.6 mphLight Drizzle
5:15 AM35.6 °F32.0 °F87 %30.04 in10.0 miEast (80°)3.5 mphDrizzle
5:35 AM33.8 °F32.0 °F93 %30.04 in10.0 miNNE (20°)4.6 mphRainRain
7:50 AM37.4 °F33.8 °F87 %30.07 in5.0 miSouth (170°)6.9 mphRainLight Rain
8:45 AM37.4 °F33.8 °F87 %30.07 in4.0 miSouth (180°)5.8 mphRainLight Rain
9:55 AM37.4 °F33.8 °F87 %30.07 in5.0 miSE (140°)10.4 mph16.1 mphRainLight Rain
10:55 AM39.2 °F33.8 °F81 %30.07 in5.0 miSouth (180°)19.6 mph29.9 mphRainLight Rain
11:55 AM37.4 °F35.6 °F93 %30.07 in3.0 miSouth (190°)11.5 mphRainLight Rain
12:55 PM39.2 °F35.6 °F87 %30.05 in5.0 miSSW (200°)11.5 mph20.7 mphRainRain
1:50 PM39.2 °F35.6 °F87 %30.05 in5.0 miSSW (210°)11.5 mph23.0 mphRainRain
2:45 PM37.4 °F35.6 °F93 %30.07 in4.0 miSSW (200°)13.8 mph26.5 mphRainHeavy Rain
3:50 PM37.4 °F33.8 °F87 %30.08 in4.0 miSSW (210°)6.9 mph21.9 mphRainRain
4:50 PM37.4 °F33.8 °F87 %30.07 in4.0 miSSW (210°)11.5 mphRainRain
4:55 PM35.6 °F33.8 °F93 %30.07 in5.0 miSSW (210°)12.7 mph0.25 inRainRain
5:15 PM37.4 °F33.8 °F87 %30.10 in5.0 miSSW (210°)11.5 mph19.6 mph0.04 inRainRain
5:35 PM35.6 °F33.8 °F93 %30.10 in7.0 miSSW (210°)11.5 mph0.09 inRainRain
5:55 PM35.6 °F33.8 °F93 %30.10 in7.0 miSSW (200°)12.7 mph16.1 mph0.18 inRainRain
6:15 PM35.6 °F33.8 °F93 %30.10 in5.0 miSSW (210°)10.4 mph0.09 inRainRain
6:35 PM35.6 °F33.8 °F93 %30.11 in7.0 miSW (220°)9.2 mph0.20 inRainRain
6:55 PM35.6 °F33.8 °F93 %30.11 in7.0 miSouth (190°)5.8 mph9.2 mph0.29 inRainRain
7:15 PM35.6 °F33.8 °F93 %30.11 in7.0 miSSW (210°)9.2 mph17.3 mph0.07 inRainRain
7:35 PM35.6 °F33.8 °F93 %30.11 in7.0 miSSW (210°)10.4 mph0.11 inRainRain
7:55 PM35.6 °F33.8 °F93 %30.13 in7.0 miSSW (210°)8.1 mph0.15 inRainLight Rain
8:15 PM35.6 °F33.8 °F93 %30.13 in7.0 miSSW (210°)8.1 mph0.03 inRainRain
8:35 PM35.6 °F33.8 °F93 %30.13 in7.0 miSW (220°)8.1 mph0.09 inRainLight Rain
8:55 PM35.6 °F33.8 °F93 %30.14 in7.0 miSW (220°)8.1 mph0.14 inRainLight Rain
9:15 PM35.6 °F33.8 °F93 %30.15 in10.0 miSW (230°)6.9 mph0.04 inRainRain
9:35 PM35.6 °F33.8 °F93 %30.15 in10.0 miSW (230°)9.2 mph0.07 inRainRain
9:55 PM35.6 °F33.8 °F93 %30.16 in7.0 miSouth (180°)6.9 mph0.11 inRainRain
10:15 PM35.6 °F33.8 °F93 %30.15 in10.0 miSSE (160°)4.6 mph0.01 inRainLight Rain
10:35 PM35.6 °F32.0 °F87 %30.14 in10.0 miSSE (160°)6.9 mph0.02 inRainRain
10:55 PM35.6 °F32.0 °F87 %30.14 in10.0 miSSE (160°)9.2 mph0.02 inRainLight Rain
11:15 PM35.6 °F32.0 °F87 %30.15 in10.0 miSSE (160°)8.1 mph0.01 inRainLight Rain
11:35 PM35.6 °F32.0 °F87 %30.14 in10.0 miSE (140°)11.5 mph0.03 inRainLight Rain
11:55 PM35.6 °F32.0 °F87 %30.14 in10.0 miSSE (150°)9.2 mph0.04 inRainLight Rain
Hourly data recorded from KTRK, located miles away from Alpine Meadows, California







STORIES FROM OUR PARTNERS